Date_and_time,latitude,longitude,wind_speed,RelWindDirFrom,WindDirFrom,air_pressure,air_temperature,relative_humidity,Temp,platform_speed_wrt_ground,air_pressure_at_mean_sea_level,platform_orientation
2018-04-25 23:50,50.6304316666667,-96.9807566666667,17.6,30.4,358,979.24,16.0,34,4.76,0.0,1005.19,216.2
2018-04-26 00:00,50.63043,-96.98074,23.0,28.9,5,979.56,10.1,45,4.70,0.0,1005.78,176.8
2018-04-26 00:10,50.6304366666667,-96.9807466666667,20.4,29.9,3,979.95,9.4,44,4.54,0.0,1006.21,176.8
2018-04-26 00:20,50.6304383333333,-96.9807516666667,19.9,27.1,4,980.17,9.5,44,4.52,0.0,1006.44,176.8
2018-04-26 00:30,50.630435,-96.9807533333333,18.4,22.9,5,980.45,8.9,47,4.37,0.0,1006.76,176.8
2018-04-26 00:40,50.6304466666667,-96.9807883333333,18.4,23.3,2,980.62,8.8,48,4.33,0.0,1006.93,176.8
2018-04-26 00:50,50.630435,-96.9807633333333,21.2,26.8,2,980.64,8.9,48,4.39,0.0,1006.94,176.8
2018-04-26 01:00,50.6304333333333,-96.9807583333333,18.7,25.0,2,980.91,8.6,50,4.52,0.0,1007.23,360.0
2018-04-26 01:10,50.6304316666667,-96.9807566666667,17.7,24.0,2,981.19,8.4,51,4.46,0.0,1007.53,360.0
2018-04-26 01:20,50.630435,-96.9807583333333,16.7,20.4,2,981.38,7.8,54,4.28,0.0,1007.76,360.0
2018-04-26 01:30,50.6304383333333,-96.9807666666667,14.7,19.2,0,981.60,7.6,55,4.25,0.0,1008.00,360.0
2018-04-26 01:40,50.6304316666667,-96.98078,14.8,19.3,360,981.88,7.7,54,4.07,0.0,1008.40,360.0
2018-04-26 01:50,50.63044,-96.980775,16.5,21.6,359,982.00,8.6,50,3.95,0.0,1008.77,360.0
2018-04-26 02:00,50.6304383333333,-96.9807733333333,14.7,18.3,359,982.27,8.5,50,4.04,0.0,1009.09,346.7
2018-04-26 02:10,50.63044,-96.9807716666667,15.2,21.3,355,982.30,9.1,47,4.13,0.0,1009.09,346.7
2018-04-26 02:20,50.6304366666667,-96.9807666666667,14.9,19.0,355,982.37,9.4,45,4.08,0.0,1009.17,346.7
2018-04-26 02:30,50.630435,-96.9807666666667,13.7,18.9,357,982.52,9.3,45,3.99,0.0,1009.33,346.7
2018-04-26 02:40,50.630425,-96.9807566666667,12.0,14.3,357,982.69,8.6,47,3.95,0.0,1009.54,346.7
2018-04-26 02:50,50.63043,-96.9807616666667,11.3,14.7,349,982.90,8.7,46,3.85,0.0,1009.76,346.7
2018-04-26 03:00,50.63043,-96.9807616666667,11.9,16.8,351,982.92,9.3,44,3.86,0.0,1009.77,270.0
2018-04-26 03:10,50.6304283333333,-96.98076,12.0,15.8,353,982.98,9.0,45,3.87,0.0,1009.87,270.0
2018-04-26 03:20,50.6304266666667,-96.9807566666667,12.4,16.3,353,983.12,8.9,45,3.89,0.0,1010.03,270.0
2018-04-26 03:30,50.6304366666667,-96.9807783333333,10.6,14.9,346,983.32,8.9,45,3.92,0.0,1010.23,270.0
2018-04-26 03:40,50.63043,-96.980765,10.2,14.2,356,983.42,8.9,45,3.92,0.0,1010.29,270.0
2018-04-26 03:50,50.6304183333333,-96.9807733333333,9.8,14.7,355,983.54,8.3,46,4.01,0.0,1010.45,270.0
2018-04-26 04:00,50.630425,-96.9807666666667,13.4,20.8,353,983.54,9.0,42,3.99,0.0,1010.38,228.3
2018-04-26 04:10,50.6304233333333,-96.9807633333333,13.9,22.5,346,983.63,9.2,41,3.95,0.0,1010.45,228.3
2018-04-26 04:20,50.6304233333333,-96.9807616666667,15.4,23.9,342,983.64,9.4,40,3.95,0.0,1010.46,228.3
2018-04-26 04:30,50.630395,-96.9807783333333,14.8,19.6,343,983.76,9.2,41,4.00,0.0,1010.63,228.3
2018-04-26 04:40,50.6304216666667,-96.9807616666667,13.4,19.0,343,983.98,8.9,43,3.98,0.0,1010.86,228.3
2018-04-26 04:50,50.630425,-96.98076,12.6,17.8,337,984.16,8.7,43,3.99,0.0,1011.02,228.3
2018-04-26 05:00,50.6304233333333,-96.9807516666667,12.0,16.9,339,984.27,8.5,44,3.90,0.0,1011.16,138.8
2018-04-26 05:10,50.6304233333333,-96.9807633333333,12.0,16.8,336,984.37,8.2,45,3.90,0.0,1011.28,138.8
2018-04-26 05:20,50.630425,-96.9807633333333,12.9,16.9,341,984.45,8.0,46,3.90,0.0,1011.38,138.8
2018-04-26 05:30,50.630425,-96.9807633333333,13.1,18.6,341,984.51,7.7,47,3.89,0.0,1011.45,138.8
2018-04-26 05:40,50.630425,-96.980765,13.1,18.7,342,984.70,7.4,49,3.88,0.0,1011.69,138.8
2018-04-26 05:50,50.630435,-96.9807566666667,13.5,18.5,340,984.83,7.2,49,3.90,0.0,1011.80,138.8
2018-04-26 06:00,50.6304416666667,-96.9807533333333,12.4,16.9,337,984.95,7.0,50,3.93,0.0,1011.92,23.5
2018-04-26 06:10,50.630445,-96.98075,11.3,17.0,334,985.07,6.8,51,3.92,0.0,1012.05,23.5
2018-04-26 06:20,50.6304433333333,-96.980755,11.0,17.8,336,985.34,6.4,53,3.91,0.0,1012.35,23.5
2018-04-26 06:30,50.6304416666667,-96.9807566666667,10.3,15.8,333,985.47,6.2,54,3.89,0.0,1012.51,23.5
2018-04-26 06:40,50.63044,-96.980755,10.7,14.8,336,985.56,5.9,55,3.86,0.0,1012.62,23.5
2018-04-26 06:50,50.6304383333333,-96.9807533333333,12.3,21.6,341,985.68,5.7,56,3.84,0.0,1012.77,23.5
2018-04-26 07:00,50.630435,-96.9807533333333,12.1,17.1,343,985.79,5.5,57,3.81,0.0,1012.90,48.3
2018-04-26 07:10,50.6304333333333,-96.980755,10.4,13.7,339,985.94,5.3,58,3.79,0.0,1013.08,48.3
2018-04-26 07:20,50.630425,-96.9807566666667,9.7,15.7,336,986.13,5.1,59,3.77,0.0,1013.30,48.3
2018-04-26 07:30,50.63044,-96.9807383333333,10.2,15.4,329,986.22,4.9,59,3.75,0.0,1013.42,48.3
2018-04-26 07:40,50.6304383333333,-96.9807733333333,10.0,14.8,331,986.29,4.7,60,3.77,0.0,1013.51,48.3
2018-04-26 07:50,50.63043,-96.98076,10.7,16.7,331,986.27,4.7,59,3.82,0.0,1013.49,48.3
2018-04-26 08:00,50.6304283333333,-96.9807583333333,10.1,14.8,322,986.39,4.4,60,3.85,0.0,1013.65,270.0
2018-04-26 08:10,50.63043,-96.9807583333333,9.6,12.6,321,986.46,4.0,62,3.88,0.0,1013.75,270.0
2018-04-26 08:20,50.6304316666667,-96.98076,7.9,11.0,321,986.61,3.6,64,3.90,0.0,1013.95,270.0
2018-04-26 08:30,50.6304316666667,-96.98076,8.9,14.1,316,986.63,3.2,66,3.91,0.0,1014.00,270.0
2018-04-26 08:40,50.63043,-96.9807583333333,8.2,11.7,318,986.79,2.8,68,3.95,0.0,1014.19,270.0
2018-04-26 08:50,50.63043,-96.9807583333333,9.2,13.3,320,986.86,2.5,70,4.00,0.0,1014.29,270.0
2018-04-26 09:00,50.6304316666667,-96.98076,8.8,14.0,323,987.06,2.3,71,4.02,0.0,1014.51,221.3
2018-04-26 09:10,50.63043,-96.9807583333333,9.5,14.3,324,987.21,2.2,71,4.00,0.0,1014.69,221.3
2018-04-26 09:20,50.6304316666667,-96.98076,9.6,13.4,323,987.41,2.1,71,4.01,0.0,1014.91,221.3
2018-04-26 09:30,50.6304316666667,-96.98076,9.7,14.3,324,987.51,2.1,71,4.02,0.0,1015.02,221.3
2018-04-26 09:40,50.6304316666667,-96.9807583333333,9.2,13.3,324,987.64,1.9,72,4.03,0.0,1015.16,221.3
2018-04-26 09:50,50.6304333333333,-96.9807583333333,9.9,16.2,323,987.70,1.7,73,4.02,0.0,1015.25,221.3
2018-04-26 10:00,50.6304333333333,-96.9807566666667,9.8,13.9,332,987.78,1.7,74,3.98,0.0,1015.35,228.3
2018-04-26 10:10,50.6304333333333,-96.980755,8.7,12.3,327,987.96,1.7,74,3.97,0.0,1015.56,228.3
2018-04-26 10:20,50.6304333333333,-96.980755,8.8,12.1,325,988.13,1.3,76,4.02,0.0,1015.77,228.3
2018-04-26 10:30,50.6304333333333,-96.980755,8.4,11.6,323,988.31,1.1,77,4.09,0.0,1015.98,228.3
2018-04-26 10:40,50.6304333333333,-96.980755,7.5,10.5,312,988.53,0.9,78,4.12,0.0,1016.24,228.3
2018-04-26 10:50,50.6304333333333,-96.980755,7.8,11.2,313,988.68,0.7,78,4.15,0.0,1016.41,228.3
2018-04-26 11:00,50.630395,-96.980775,7.6,11.9,315,988.78,0.6,79,4.20,0.0,1016.52,203.5
2018-04-26 11:10,50.63044,-96.980755,8.2,11.2,319,988.86,0.5,79,4.26,0.0,1016.62,203.5
2018-04-26 11:20,50.6304466666667,-96.9807683333333,7.8,11.1,310,988.98,0.3,80,4.23,0.0,1016.75,203.5
2018-04-26 11:30,50.63041,-96.9807566666667,7.8,11.3,311,989.17,0.2,82,4.23,0.0,1016.96,203.5
2018-04-26 11:40,50.6304183333333,-96.980745,8.1,12.5,312,989.32,0.2,83,4.24,0.0,1017.12,203.5
2018-04-26 11:50,50.6304216666667,-96.9807533333333,8.3,12.0,319,989.44,0.3,84,4.27,0.0,1017.24,203.5
2018-04-26 12:00,50.630425,-96.9807533333333,9.4,13.1,327,989.50,0.4,84,4.28,0.0,1017.31,131.7
2018-04-26 12:10,50.6304283333333,-96.9807533333333,9.6,13.9,325,989.60,0.4,84,4.31,0.0,1017.42,131.7
2018-04-26 12:20,50.63043,-96.9807516666667,9.2,13.1,325,989.84,0.5,85,4.33,0.0,1017.68,131.7
2018-04-26 12:30,50.63043,-96.9807533333333,8.9,13.4,324,990.03,0.6,84,4.29,0.0,1017.88,131.7
2018-04-26 12:40,50.63043,-96.9807533333333,8.7,13.4,325,990.12,0.7,84,4.26,0.0,1017.97,131.7
2018-04-26 12:50,50.63043,-96.9807533333333,8.1,12.4,334,990.08,0.9,83,4.25,0.0,1017.93,131.7
2018-04-26 13:00,50.6304283333333,-96.980755,7.9,11.4,325,990.25,1.1,82,4.27,0.0,1018.10,360.0
2018-04-26 13:10,50.6304283333333,-96.980755,7.9,12.6,323,990.32,1.3,81,4.29,0.0,1018.16,360.0
2018-04-26 13:20,50.63042,-96.98075,8.3,11.5,325,990.42,1.4,80,4.29,0.0,1018.27,360.0
2018-04-26 13:30,50.6304233333333,-96.98075,8.3,12.0,332,990.47,1.6,79,4.32,0.0,1018.31,360.0
2018-04-26 13:40,50.6304283333333,-96.980755,8.0,10.9,325,990.51,1.8,78,4.31,0.0,1018.34,360.0
2018-04-26 13:50,50.63043,-96.9807566666667,7.0,10.0,328,990.53,1.9,77,4.27,0.0,1018.35,360.0
2018-04-26 14:00,50.63043,-96.9807583333333,5.4,8.7,335,990.51,2.1,78,4.21,0.0,1018.32,23.5
2018-04-26 14:10,50.63044,-96.98076,6.7,11.7,329,990.44,2.4,75,4.18,0.0,1018.23,23.5
2018-04-26 14:20,50.6304366666667,-96.9807633333333,8.0,13.1,334,990.41,2.4,74,4.16,0.0,1018.19,23.5
2018-04-26 14:30,50.6304316666667,-96.98076,9.1,12.4,324,990.29,2.7,71,4.16,0.0,1018.05,23.5
2018-04-26 14:40,50.6304316666667,-96.9807633333333,7.6,11.6,329,990.28,3.0,69,4.17,0.0,1018.01,23.5
2018-04-26 14:50,50.6304316666667,-96.980765,8.3,12.0,329,990.29,3.3,67,4.19,0.0,1018.00,23.5
2018-04-26 15:00,50.6304316666667,-96.980765,7.6,11.2,326,990.22,3.6,65,4.20,0.0,1017.90,299.2
2018-04-26 15:10,50.6304316666667,-96.980765,9.1,14.0,326,990.19,3.9,62,4.19,0.0,1017.84,299.2
2018-04-26 15:20,50.6304333333333,-96.980765,9.1,12.5,335,990.27,4.1,60,4.19,0.0,1017.90,299.2
2018-04-26 15:30,50.6304333333333,-96.980765,8.0,13.3,328,990.24,4.5,57,4.20,0.0,1017.85,299.2
2018-04-26 15:40,50.6304333333333,-96.980765,7.5,11.2,318,990.14,4.9,54,4.22,0.0,1017.72,299.2
2018-04-26 15:50,50.6304333333333,-96.980765,7.7,14.7,322,990.18,5.2,51,4.23,0.0,1017.74,299.2
2018-04-26 16:00,50.6304316666667,-96.980765,5.6,13.4,22,990.38,4.5,64,4.23,0.0,1017.96,347.4
2018-04-26 16:10,50.6304,-96.98075,8.4,11.2,61,990.44,2.5,81,4.24,0.0,1018.13,347.4
2018-04-26 16:20,50.63042,-96.9807583333333,9.7,11.9,65,990.47,1.8,88,4.22,0.0,1018.17,347.4
2018-04-26 16:30,50.6304316666667,-96.98076,8.9,11.6,68,990.39,1.8,90,4.23,0.0,1018.08,347.4
2018-04-26 16:40,50.6304333333333,-96.98076,8.6,10.3,73,990.27,1.9,91,4.25,0.0,1017.94,347.4
2018-04-26 16:50,50.630435,-96.9807583333333,8.4,10.8,76,990.14,1.9,91,4.25,0.0,1017.78,347.4
2018-04-26 17:00,50.6304333333333,-96.9807566666667,10.2,11.5,76,990.06,1.9,90,4.25,0.0,1017.69,360.0
2018-04-26 17:10,50.6304283333333,-96.98076,9.1,10.5,80,990.12,1.9,91,4.26,0.0,1017.74,360.0
2018-04-26 17:20,50.6304366666667,-96.9807633333333,8.4,9.9,81,990.08,2.2,90,4.29,0.0,1017.67,360.0
2018-04-26 17:30,50.6304366666667,-96.9807633333333,5.4,8.7,99,990.09,2.5,88,4.30,0.0,1017.64,360.0
2018-04-26 17:40,50.630445,-96.9807716666667,5.2,7.1,103,990.11,2.8,88,4.32,0.0,1017.63,360.0
2018-04-26 17:50,50.63044,-96.9807666666667,5.9,7.3,96,990.02,3.0,85,4.31,0.0,1017.56,360.0
2018-04-26 18:00,50.6304416666667,-96.9807683333333,6.0,7.0,106,989.80,3.1,86,4.31,0.0,1017.43,38.0
2018-04-26 18:10,50.630435,-96.980765,6.2,7.3,117,989.65,2.8,90,4.32,0.0,1017.33,38.0
2018-04-26 18:20,50.6304383333333,-96.9807633333333,5.8,6.9,125,989.48,2.4,92,4.34,0.0,1017.18,38.0
2018-04-26 18:30,50.6304383333333,-96.9807583333333,6.3,7.8,125,989.26,2.3,92,4.38,0.0,1016.95,38.0
2018-04-26 18:40,50.63044,-96.9807566666667,8.0,10.2,135,989.07,1.8,91,4.40,0.0,1016.78,38.0
2018-04-26 18:50,50.63044,-96.9807583333333,7.5,9.6,129,988.87,2.3,88,4.42,0.0,1016.54,38.0
2018-04-26 19:00,50.6304366666667,-96.9807583333333,6.9,9.4,137,988.66,2.2,88,4.44,0.0,1016.33,48.3
2018-04-26 19:10,50.6304366666667,-96.98076,6.6,8.0,133,988.46,2.4,87,4.47,0.0,1016.10,48.3
2018-04-26 19:20,50.6304266666667,-96.9807483333333,6.2,8.0,143,988.34,2.4,87,4.50,0.0,1015.96,48.3
2018-04-26 19:30,50.6304233333333,-96.9807533333333,6.9,9.0,150,988.12,2.2,87,4.51,0.0,1015.73,48.3
2018-04-26 19:40,50.6304233333333,-96.9807633333333,6.2,8.1,139,987.98,2.5,87,4.51,0.0,1015.57,48.3
2018-04-26 19:50,50.6304233333333,-96.9807633333333,8.2,11.0,155,987.83,2.3,86,4.49,0.0,1015.42,48.3
2018-04-26 20:00,50.630425,-96.9807683333333,8.2,9.8,147,987.48,2.1,87,4.51,0.0,1015.09,228.3
2018-04-26 20:10,50.630425,-96.98077,8.4,10.9,134,987.21,3.0,81,4.44,0.0,1014.78,228.3
2018-04-26 20:20,50.6304333333333,-96.9807733333333,8.4,11.0,129,986.92,3.0,83,4.43,0.0,1014.49,228.3
2018-04-26 20:30,50.630455,-96.9807683333333,7.4,10.6,146,986.66,2.4,82,4.48,0.0,1014.28,228.3
2018-04-26 20:40,50.6304416666667,-96.9807516666667,6.4,9.9,149,986.39,2.7,81,4.54,0.0,1013.96,228.3
2018-04-26 20:50,50.63044,-96.9807583333333,6.8,9.7,151,986.23,2.2,82,4.58,0.0,1013.82,228.3
2018-04-26 21:00,50.63044,-96.980755,5.7,7.3,157,986.06,2.7,78,4.54,0.0,1013.60,90.0
2018-04-26 21:10,50.63044,-96.9807566666667,5.2,10.0,138,985.69,4.0,72,4.52,0.0,1013.16,90.0
2018-04-26 21:20,50.6304383333333,-96.9807583333333,8.7,12.2,136,985.30,3.9,68,4.47,0.0,1012.78,90.0
2018-04-26 21:30,50.63044,-96.98076,9.9,12.2,125,984.93,3.9,69,4.40,0.0,1012.39,90.0
2018-04-26 21:40,50.6304383333333,-96.98076,8.9,10.9,122,984.66,3.5,74,4.35,0.0,1012.15,90.0
2018-04-26 21:50,50.6304383333333,-96.98076,11.1,12.9,122,984.26,3.3,76,4.41,0.0,1011.75,90.0
2018-04-26 22:00,50.63044,-96.98076,10.8,12.6,124,984.08,3.3,75,4.39,0.0,1011.51,360.0
2018-04-26 22:10,50.63044,-96.98076,9.6,11.3,124,984.01,3.3,77,4.30,0.0,1011.44,360.0
2018-04-26 22:20,50.63044,-96.98076,9.8,11.4,123,983.85,3.3,76,4.31,0.0,1011.31,360.0
2018-04-26 22:30,50.63044,-96.98076,9.9,11.6,124,983.54,3.3,78,4.44,0.0,1010.98,360.0
2018-04-26 22:40,50.63044,-96.9807616666667,12.4,14.3,127,983.16,3.8,73,4.48,0.0,1010.58,360.0
2018-04-26 22:50,50.6304216666667,-96.9807816666667,8.5,12.6,125,982.97,3.8,75,4.49,0.0,1010.37,360.0
2018-04-26 23:00,50.63044,-96.9807466666667,6.0,10.8,147,982.56,3.4,76,4.47,0.0,1009.89,41.2
2018-04-26 23:10,50.6304366666667,-96.9807466666667,7.3,9.9,163,982.39,3.1,76,4.31,0.0,1009.74,41.2
2018-04-26 23:20,50.630435,-96.980755,8.2,12.3,150,982.40,3.4,75,4.28,0.0,1009.74,41.2
2018-04-26 23:30,50.630435,-96.9807583333333,1.8,6.9,77,982.63,3.9,76,4.24,0.0,1009.97,41.2
